Other Public Products
Issued by NWS Grand Forks, ND

Home | Current Version | Previous Version | Text Only | Print | Product List | Glossary Off
Versions: 1 2 3 4 5 6 7 8 9 10 11 12 13 14 15 16 17 18 19 20 21 22 23 24 25 26 27 28 29 30 31 32 33 34 35 36 37 38 39 40 41 42 43 44 45 46 47 48 49 50

000
FPUS83 KFGF 290710
OPUFGF
PRAIRIE TO PINES WEATHER ROUNDUP
NATIONAL WEATHER SERVICE EASTERN NORTH DAKOTA/GRAND FORKS ND
200 AM CDT FRI JUL 29 2016

 **SATELLITE DATA USED TO AUGMENT SKY COVER AT AUTOMATED STATIONS**
 *****  WEATHER ACROSS EASTERN NORTH DAKOTA  *****

CITY           SKY/WX    TMP DP  RH WIND       PRES   REMARKS
GRAND FORKS    CLEAR     59  54  83 N3        30.09F
GRAND FORKS AF CLEAR     55  53  95 CALM      30.10F
GRAND CITY NWS   N/A     59 N/A N/A VRB2        N/A
BUXTON           N/A     60  59  96 CALM        N/A
DEVILS LAKE    CLEAR     57  55  93 E6        30.13F
FARGO          CLOUDY    63  57  81 N5        30.10R
WAHPETON ARPT  SUNNY     61  57  88 N5        30.09S
$$

 *****  WEATHER ACROSS CENTRAL AND WESTERN NORTH DAKOTA  *****

CITY           SKY/WX    TMP DP  RH WIND       PRES   REMARKS
JAMESTOWN      PTCLDY    62  59  90 E3        30.11S
BISMARCK       MOCLDY    64  57  78 NE5       30.12S
MINOT          CLEAR     61  55  81 SW7       30.12S
MINOT AFB      CLEAR     51  48  90 SW6       30.11S
GARRISON         N/A     57  56  96 NW5       30.13S
WILLISTON      CLEAR     55  52  89 CALM      30.13S
DICKINSON      CLOUDY    58  57  97 CALM      30.14S
HETTINGER      FOG       53  52  96 CALM      30.17S VSB 1/4
$$

 *****  OTHER OBSERVATIONS NORTHEAST NORTH DAKOTA  *****

CITY           SKY/WX    TMP DP  RH WIND       PRES   REMARKS
WALHALLA       NOT AVBL
LANGDON        FOG       52  52 100 CALM      30.14S VSB 3/4
CAVALIER       FAIR      55  55 100 W3        30.11S
GRAFTON        FAIR      57  57 100 N3        30.12S
CANDO          NOT AVBL
FORT TOTTEN      N/A     58  56  92 E2        29.95S
ROLLA          FAIR      52  52 100 CALM      30.15S
RUGBY          NOT AVBL
 ***** THE ABOVE OBSERVATIONS ARE NON NWS ARE NOT QUALITY
        CONTROLLED AND MAY MIS-REPORT RAIN FOR SNOW...
$$

 *****  OTHER OBSERVATIONS SOUTHEAST NORTH DAKOTA *****

CITY           SKY/WX    TMP DP  RH WIND       PRES   REMARKS
COOPERSTOWN    NOT AVBL
VALLEY CITY    PTSUNNY   61  61 100 E5        30.14R
OAKES            N/A    N/A N/A N/A MISG        N/A
GWINNER        PTSUNNY   61  59  94 N6        30.11S
SHEYENNE NWR     N/A     63  56  79 NE6       29.95S
BUFFALO          N/A     61  56  84 NE7         N/A
WYNDMERE       NOT AVBL
 ***** THE ABOVE OBSERVATIONS ARE NON NWS ARE NOT QUALITY
       CONTROLLED AND MAY MIS-REPORT RAIN FOR SNOW...
$$

  *****  WEATHER ACROSS NORTHERN MINNESOTA  *****

CITY           SKY/WX    TMP DP  RH WIND       PRES   REMARKS
FLAG ISLAND    CLEAR     66  63  88 CALM      30.09S
WARROAD        CLEAR     55  52  88 CALM      30.11S
ROSEAU         CLEAR     54  48  82 CALM      30.11S
HALLOCK        CLEAR     55  54  94 N3        30.10S
THF RVR FALLS  CLEAR     57  56  96 CALM      30.12S
HALSTAD          N/A     57  54  89 N5          N/A
FOSSTON        CLEAR     52  48  87 CALM      30.12S
BAUDETTE       CLEAR     54  52  93 CALM      30.10S
WASKISH        CLEAR     55  54  94 CALM      30.10R
CROOKSTON      CLEAR     57  55  94 CALM      30.11S
$$
  *****  WEATHER ACROSS CENTRAL AND WEST MINNESOTA  *****

CITY           SKY/WX    TMP DP  RH WIND       PRES   REMARKS
BEMIDJI        CLEAR     57  54  88 W6        30.11R
PARK RAPIDS    PTCLDY    60  56  86 CALM      30.11S
WADENA         NOT AVBL
DETROIT LAKES  PTCLDY    61  59  94 CALM      30.12S
MOORHEAD       PTCLDY    61  57  88 NE3       30.10S
FERGUS FALLS   CLEAR     66  59  77 SE3       30.11S
ELBOW LAKE     FAIR      63  59  88 E5        30.11S
MORRIS MN      CLEAR     63  61  94 CALM      30.09F
STAPLES        CLEAR     57  55  94 CALM      30.11S
WHEATON        PTCLDY    66  63  88 S7        30.11S
$$
  *****  WEATHER ELSEWHERE ACROSS MINNESOTA  *****

CITY           SKY/WX    TMP DP  RH WIND       PRES   REMARKS
DULUTH         CLEAR     51  50  96 CALM      30.12R
INTRNTL FALLS  CLEAR     54  52  93 CALM      30.10R
ELY            CLEAR     50  48  93 CALM      30.13R
CLOQUET        CLEAR     50  48  93 CALM      30.12R
BRAINERD       PTCLDY    58  57  97 CALM      30.12R
HIBBING        CLEAR     47  46  97 CALM      30.12S FOG
ALEXANDRIA     CLEAR     60  55  83 CALM      30.12S
SAINT CLOUD    CLEAR     58  56  93 CALM      30.09R
MINNEAPOLIS    MOCLDY    66  56  70 N5        30.06S
$$

  *****  WEATHER ACROSS SOUTH DAKOTA  *****

CITY           SKY/WX    TMP DP  RH WIND       PRES   REMARKS
SIOUX FALLS    PTCLDY    59  55  87 NE3       30.08F
BROOKINGS      CLOUDY    57  55  93 NW3       30.11R
WATERTOWN      CLOUDY    66  58  75 CALM      30.11S
HURON          CLOUDY    64  58  80 E3        30.09S
SISSETON         N/A     62  61  96 S5        30.09R
ABERDEEN       CLOUDY    66  60  81 N3        30.10R
MITCHELL       MOCLDY    63  58  83 E6        30.09S
PIERRE         CLOUDY    64  63  96 SW6       30.09S
MOBRIDGE       CLOUDY    69  58  67 E5        30.08F
RAPID CITY     FOG       55  55 100 CALM      30.17S VSB 1/4
$$

  *****  SOME WEATHER IN NEARBY STATES *****

CITY           SKY/WX    TMP DP  RH WIND       PRES   REMARKS
GLASGOW MT     CLEAR     61  54  77 E9        30.09F
GREAT FALLS MT CLEAR     68  49  50 NE13      30.10R
CHEYENNE WY    CLOUDY    60  54  80 S6        30.30R
SCOTTSBLUFF NE CLEAR     62  59  90 NE5       30.18R
OMAHA NE       CLOUDY    70  65  84 N6        30.02S
DES MOINES IA  CLOUDY    69  63  81 N7        29.99S
DAVENPORT IA   PTCLDY    67  65  93 NW3       29.93S
CHICAGO IL     CLOUDY    70  68  93 N8        29.92S
EAU CLAIRE WI  CLOUDY    64  60  87 N3        30.05R
LA CROSSE WI   CLOUDY    65  62  90 N8        30.00S
$$

  *****  SOME NATIONAL WEATHER *****

CITY           SKY/WX    TMP DP  RH WIND       PRES   REMARKS
LA GUARDIA NY  LGT RAIN  77  73  87 E5        29.83F
RALEIGH NC     CLEAR     77  70  79 W5        29.87F
ATLANTA GA     MOCLDY    76  72  87 W7        30.03R
NEW ORLEANS LA PTCLDY    82  72  71 CALM      30.02S
OKLAHOMA CITY  PTCLDY    79  71  76 NE12      29.97S
ALBUQUERQUE NM PTCLDY    78  46  32 SE8       30.14R
SALT LAKE CITY PTCLDY    76  44  32 SW7       30.03S
LOS ANGELES CA PTCLDY    70  64  81 SW7       29.84S
BOISE ID       CLEAR     76  40  27 CALM      29.96R
SEATTLE WA     CLEAR     73  59  61 N8        30.03F
$$

*** WEATHER ACROSS MANITOBA...SASKATCHEWAN AND ONTARIO ***
                ***ONTARIO***

CITY           SKY/WX    TMP DP  RH WIND       PRES   REMARKS
GERALDTON      PTCLDY    54  50  87 NW5       30.10S
THUNDER BAY    CLEAR     52  52 100 SW5       30.11R
SIOUX LOOKOUT  CLEAR     48  48 100 CALM      30.10S
TORONTO        MOCLDY    70  64  83 N9        29.92S
BIG TROUT LK   CLOUDY    63  54  72 SW5       30.03S
PICKLE LAKE    NOT AVBL
DRYDEN         CLEAR     57  55  94 CALM      30.11S
KENORA         CLEAR     61  52  72 CALM      30.11S
$$
                *** MANITOBA***

CITY           SKY/WX    TMP DP  RH WIND       PRES   REMARKS
BRANDON        CLEAR     52  50  93 NW3       30.11F
DAUPHIN        CLOUDY    63  59  88 SW6       30.06F
ISLAND LAKE    CLOUDY    66  57  72 CALM      30.02S
PILOT MOUND      N/A     55  54  94 S3          N/A
THE PAS        PTCLDY    63  57  82 SE5       30.00F
THOMPSON       CLEAR     55  55 100 NE3       30.01F
WINNIPEG       CLEAR     54  52  94 W2        30.11S
LYNN LAKE      CLOUDY    61  57  88 MISG      30.00F
CHURCHILL      PTCLDY    50  46  87 NW6       30.07S
GILLAM         MOCLDY    54  50  87 E7        30.06S
$$
                ***SASKATCHEWAN***

CITY           SKY/WX    TMP DP  RH WIND       PRES   REMARKS
ESTEVAN        PTCLDY    55  54  94 S5        30.12S
KINDERSLEY     LGT RAIN  63  59  88 E8        30.04F
LLOYDMINSTER   CLOUDY    61  55  82 VRB2      30.05F
PRINCE ALBERT  LGT RAIN  63  61  94 N3        30.02F
REGINA         NOT AVBL
YORKTON        CLEAR     63  54  72 S8        30.09S   C1F1C2F2C3F3C4F4C5F5C6F6C7F7C8F8C9F9CaFaCbFbCcFcCdFdCe!


USA.gov is the U.S. government's official web portal to all federal, state and local government web resources and services.